Regional Weather Roundup
Issued by NWS

Home | Current Version | Previous Version | Text Only | Print | Product List | Glossary On
Versions: 1 2 3 4 5 6 7 8 9 10 11 12 13 14 15 16 17 18 19 20 21 22 23 24 25 26 27 28 29 30 31 32 33 34 35 36 37 38 39 40 41 42 43 44 45 46 47 48 49 50
000
ASUS42 KFFC 250410
RWRGA
WEATHER ROUNDUP FOR GEORGIA
NATIONAL WEATHER SERVICE PEACHTREE CITY GA
1100 PM EST SAT FEB 24 2018

NOTE: "FAIR" INDICATES FEW OR NO CLOUDS BELOW 12,000 FEET WITH NO
SIGNIFICANT WEATHER AND/OR OBSTRUCTIONS TO VISIBILITY.

* = USE WITH CAUTION. THE STATIONS MARKED WITH AN ASTERISK MAY NOT
REPORT WEATHER SUCH AS PRECIPITATION, FOG, OR THUNDER AND ARE NOT
QUALITY CONTROLLED BY NWS.

THE REMARK "TC" DENOTES TEMPERATURE READING IN DEGREES CELSIUS.

GAZ001>058-250500-
NORTH GEORGIA

CITY           SKY/WX    TMP DP  RH WIND       PRES   REMARKS
ATLANTA        FAIR      70  59  68 SW12      30.07R
ATHENS         CLOUDY    69  58  67 S6        30.06S
CHAMBLEE       FAIR      69  55  60 S9        30.06R
PEACHTREE CITY FAIR      71  58  63 S7        30.08R
ROME           CLOUDY    72  60  66 S8        30.00R
WEST ATLANTA   FAIR      71  59  65 S8        30.06R
GAINESVILLE    MOCLDY    70  56  61 S7        30.08S
CARTERSVILLE   CLOUDY    71  59  65 S10       30.04R


CITY           SKY/WX    TMP DP  RH WIND       PRES   REMARKS
DALTON*        CLOUDY    70  57  64 S8        30.02R
LAWRENCEVILLE* MOCLDY    70  57  63 SW10      30.07R
MARIETTA       PTCLDY    71  57  62 S8        30.06R
KENNESAW*      FAIR      71  58  63 SW9       30.06R
CANTON*        FAIR      72  59  64 S8        30.07R
BLAIRSVILLE*   CLOUDY    69  55  59 SW9G22    30.07R
$$

GAZ059>098-102>109-250500-
CENTRAL GEORGIA

CITY           SKY/WX    TMP DP  RH WIND       PRES   REMARKS
AUGUSTA-BUSH   FAIR      69  61  75 S13       30.09S
AUGUSTA-DANIEL FAIR      71  61  70 S7        30.10S
COLUMBUS       FAIR      73  59  61 SW10      30.08R
MACON          FAIR      72  58  61 S12       30.09S
ROBINS AFB     CLEAR     71  58  62 SW10      30.08F


CITY           SKY/WX    TMP DP  RH WIND       PRES   REMARKS
LAGRANGE*      FAIR      71  59  66 SW6       30.08R
SYLVANIA*      FAIR      68  64  88 S3        30.14S
MILLEDGEVILLE* FAIR      72  61  68 SW6       30.08F
$$

GAZ099>101-110>166-250500-
SOUTH GEORGIA

CITY           SKY/WX    TMP DP  RH WIND       PRES   REMARKS
SAVANNAH       FAIR      67  65  93 S7        30.15S
VALDOSTA       FAIR      63  62  97 SW3       30.15S
ALMA           FAIR      69  62  78 S5        30.14S
ST SIMONS      CLOUDY    69  67  93 S5        30.16R
FT STEWART     FAIR      67  63  87 S3        30.13R
ALBANY         FAIR      67  61  81 CALM      30.14S
HUNTER AFB     FAIR      67  64  89 S6        30.13S
MOODY AFB      FAIR      64  61  88 SW6       30.14S
BRUNSWICK      MOCLDY    70  63  78 S10       30.17R


CITY           SKY/WX    TMP DP  RH WIND       PRES   REMARKS
BAINBRIDGE*    FAIR      68  68 100 SW7       30.14S
MOULTRIE*      FAIR      64  61  88 CALM      30.15S
VIDALIA*       FAIR      70  63  78 S6        30.14S
WAYCROSS*      FAIR      66  64  90 S5        30.15F
DOUGLAS*       FAIR      64  59  82 SW5       30.16R
$$




USA.gov is the U.S. government's official web portal to all federal, state and local government web resources and services.